Regional Weather Roundup
Issued by NWS

Home | Current Version | Previous Version | Graphics & Text | Print | Product List | Glossary On
Versions: 1 2 3 4 5 6 7 8 9 10 11 12 13 14 15 16 17 18 19 20 21 22 23 24 25 26 27 28 29 30 31 32 33 34 35 36 37 38 39 40 41 42 43 44 45 46 47 48 49 50
000
ASUS43 KIND 052259
RWRIN

WEATHER ROUNDUP FOR INDIANA
NATIONAL WEATHER SERVICE INDIANAPOLIS IN
700 PM EDT THU MAY 05 2016

NOTE: "FAIR" INDICATES FEW OR NO CLOUDS BELOW 12,000 FEET WITH NO
SIGNIFICANT WEATHER AND/OR OBSTRUCTIONS TO VISIBILITY.

* - STATION DOES NOT REPORT WEATHER SUCH AS PRECIPITATION OR FOG.

+ - STATION NOT QUALITY CONTROLLED BY THE NATIONAL WEATHER SERVICE.
    USE DATA WITH CAUTION...ESPECIALLY DEWPOINT AND RELATIVE
    HUMIDITY OBSERVATIONS.

INZ001>003-010>013-019-020-060000-
NORTHWEST INDIANA

CITY           SKY/WX    TMP DP  RH WIND       PRES   REMARKS
GARY /AIRPORT/ SUNNY     50  46  87 NE9       29.99F
RENSSELAER +   SUNNY     59  41  51 N9G18     29.96S

$$

LMZ046-743>745-060000-
SOUTHERN LAKE MICHIGAN

STATION/POSITION TIME  TEMP    WIND        PRES    WAVE
                       AIR SEA DIR/SP/G            HT
                 (UTC) (F)     (DEG/KT/KT) (MB)    (FT)
BURNS HARBOR     2219   45      30/  5/  8 1016.3F
MICHIGAN CITY    2200   47     330/  8/  9   N/A

$$

INZ004-005-014>016-021>024-060000-
NORTH CENTRAL INDIANA

CITY           SKY/WX    TMP DP  RH WIND       PRES   REMARKS
ELKHART        SUNNY     59  46  63 NW10G17   29.93F
GOSHEN         SUNNY     60  46  59 NW15      29.91S
SOUTH BEND     SUNNY     56  43  61 NW14      29.95S

$$

INZ006>009-017-018-025>027-060000-
NORTHEAST INDIANA

CITY           SKY/WX    TMP DP  RH WIND       PRES   REMARKS
ANGOLA *+        N/A     63  48  59 N5        29.88S
FORT WAYNE     PTSUNNY   65  43  44 N13       29.87S

$$

INZ028-029-035-036-043>045-051>053-060000-
WEST CENTRAL INDIANA

CITY           SKY/WX    TMP DP  RH WIND       PRES   REMARKS
CRAWFORDSVL +  SUNNY     61  44  54 N13       29.93S
GREENCASTLE +  MOSUNNY   61  46  59 NW12G17   29.92F
LAFAYETTE      SUNNY     61  41  47 N16G24    29.93F
TERRE HAUTE    PTSUNNY   62  45  53 NE9       29.94S

$$

INZ030>032-037>040-046>048-054>057-064-065-060000-
CENTRAL INDIANA

CITY           SKY/WX    TMP DP  RH WIND       PRES   REMARKS
COLUMBUS       PTSUNNY   59  50  72 N10       29.89S
INDIANAPOLIS   NOT AVBL
-EAGLE CREEK   MOSUNNY   63  45  51 N15G23    29.90R
KOKOMO *+      MOSUNNY   63  45  51 N18       29.90R
SHELBYVILLE    MOSUNNY   65  46  50 N14       29.88S

$$

INZ033-034-041-042-049-050-058-059-060000-
EAST CENTRAL INDIANA

CITY           SKY/WX    TMP DP  RH WIND       PRES   REMARKS
MUNCIE         CLOUDY    62  46  55 N7        29.88R

$$

INZ060-061-067>069-081>083-085>088-060000-
SOUTHWEST INDIANA

CITY           SKY/WX    TMP DP  RH WIND       PRES   REMARKS
EVANSVILLE     MOSUNNY   61  45  55 NW9       29.96S
HUNTINGBURG *+ MOSUNNY   61  45  55 NW8       29.94S

$$

INZ062-063-066-070>080-084-089>092-060000-
SOUTH CENTRAL AND SOUTHEAST INDIANA

CITY           SKY/WX    TMP DP  RH WIND       PRES   REMARKS
BLOOMINGTON    SUNNY     60  44  55 NW8       29.92F
MADISON *+     CLOUDY    59  45  58 NW3       29.90S
SEYMOUR +      PTSUNNY   63  45  51 NW13      29.89S

$$





USA.gov is the U.S. government's official web portal to all federal, state and local government web resources and services.